Location: Piotrkow Trybunalski
(51.4000°N, 19.6830°E)
Time: 10:14:43
(UTC+01:00)

BlueWalker 3 - Pass Details

Date: 05 December 2022
Orbit: 499 x 517 km, 53.2° (Epoch: 29 January)

Event Time Altitude Azimuth Distance (km) Brightness Sun altitude
Rises 19:18:51 0° 289° (WNW) 2,626 6.6 -33.9°
Reaches altitude 10° 19:21:11 10° 280° (W) 1,732 5.5 -34.2°
Enters shadow 19:21:48 14° 276° (W) 1,511 5.1 -34.3°
